User: anonymous   Login
Location: Unspecified
(50.1700°N, 6.8600°E)
Time: 07:14:14
(UTC+00:00)
Language:

CSL-04 Rocket - Orbit

View from above orbital plane
View from above orbital plane
View from above satellite
View from above satellite

Ground track
Ground track

The orbit data is extracted from the following two-line orbital elements,

1 25732U 99025C   19081.92852154 -.00000043 +00000-0 +11686-5 0  9994
2 25732 098.9836 101.4842 0038240 060.3661 359.9503 14.17660935027705
Epoch (UTC): 22 March 2019 22:17:04
Eccentricity: 0.0038240
inclination: 98.9836°
perigee height: 806 km
apogee height: 861 km
right ascension of ascending node: 101.4842°
argument of perigee: 60.3661°
revolutions per day: 14.17660935
mean anomaly at epoch: 359.9503°
orbit number at epoch: 2770

The dashed part of the orbit path shows where the satellite is in the earth's shadow,  

DLR